Regional Weather Roundup
Issued by NWS

Home | Current Version | Previous Version | Graphics & Text | Print | Product List | Glossary On
Versions: 1 2 3 4 5 6 7 8 9 10 11 12 13 14 15 16 17 18 19 20 21 22 23 24 25 26 27 28 29 30 31 32 33 34 35 36 37 38 39 40 41 42 43 44 45 46 47 48 49 50
000
ASUS43 KFSD 230510
RWRSD

WEATHER ROUNDUP FOR SOUTH DAKOTA
NATIONAL WEATHER SERVICE SIOUX FALLS SD
1200 AM CDT THU OCT 23 2014

NOTE: "FAIR" INDICATES FEW OR NO CLOUDS BELOW 12,000 FEET WITH NO
SIGNIFICANT WEATHER AND/OR OBSTRUCTIONS TO VISIBILITY.


SDZ001>005-009-010-012>017-230600-
NORTHWEST AND NORTH CENTRAL SOUTH DAKOTA

CITY           SKY/WX    TMP DP  RH WIND       PRES   REMARKS
BUFFALO          N/A     42  27  55 W5        29.92S
FAITH            N/A     43  31  62 S9        29.99S
MOBRIDGE       CLEAR     41  35  79 CALM      29.94S
$$

SDZ012>016-024>037-041>051-057-063-072>074-230600-
SOUTHWEST AND SOUTH CENTRAL SOUTH DAKOTA

CITY           SKY/WX    TMP DP  RH WIND       PRES   REMARKS
RAPID CTY ARPT CLEAR     38  32  79 W5        30.03R
PIERRE         CLEAR     49  36  61 SW6       29.99R
CUSTER         CLEAR     32  22  66 CALM      30.09R
ELLSWORTH AFB  CLEAR     45  35  67 SW8       30.02S
PHILIP         CLEAR     37  31  78 NW5       30.01S
PINE RIDGE     CLEAR     33  29  85 CALM      30.06S
SPEARFISH      FAIR      41  27  56 CALM      30.04R
WINNER         FAIR      52  40  63 SW7       30.02S
$$

SDZ004>011-016>023-039-040-230600-
NORTHEAST SOUTH DAKOTA

CITY           SKY/WX    TMP DP  RH WIND       PRES   REMARKS
ABERDEEN       CLEAR     43  42  97 SW7       29.96S
WATERTOWN      FOG       47  47 100 SW7       29.97S VSB 1/4
SISSETON         N/A     54  50  86 W15       29.92F
$$

SDZ017-020-022-023-036>040-048>070-230600-
SOUTHEAST SOUTH DAKOTA

CITY           SKY/WX    TMP DP  RH WIND       PRES   REMARKS
SIOUX FALLS    MOCLDY    53  52  96 SW3       30.02S
HURON          CLEAR     48  46  93 SW7       29.98S
CHAMBERLAIN    CLEAR     44  40  89 SW5       30.00S
MITCHELL       CLEAR     50  49  96 SW8       30.01S
YANKTON          N/A     52  48  87 SW3       30.03S VSB 1/4
$$

ABBREVIATIONS USED IN REMARKS
   TC - TEMPERATURE IN CELSIUS
  WCI - WIND CHILL INDEX
   HX - HEAT INDEX
  VSB - VISIBILITY




USA.gov is the U.S. government's official web portal to all federal, state and local government web resources and services.